Погода в Чернигове

Хотите узнать прогноз погоды в Чернигове? Тогда Вам сюда: Погода в Чернигове

Поиск расширенной информации на нашем сайте:

Полезная информация:

Новости сайта



02.01.2020
Опубликован Долгосрочный прогноз погоды по городам России и ближнего зарубежья на январь 2020 года.
Карты: Прогноз на январь и февраль 2020 года, Сравнение прогнозируемой аномалии приземной температуры воздуха на январь 2020 года по разным моделям.




Погода в Чернигове - сегодня

Время (UTC), дата Ветер
(°,м/с) 
Видим.   Явления Облачность Т
(°С)
Тd
(°С)
f(%) Тe
(°С)
Pmin
(гПа)
dP
(гПа)
Po
(мм)
O2
(г/м3)
Тmin Tmax R s Состояние
почвы
09 16.01.21 270 (З) 10 км  {ливн. осадки}  4/0 верхняя 
[Ci fib]
-17.3 -21.1 72 -20  1015.2  1.6  749  324           
12 16.01.21 270 (З) 10 км  {ливн. осадки}  4/0 средняя, верхняя 
[Ac trans|Ci fib]
-15.3 -19.4 71 -19  1015.2  0.1  749  321      0.0     
15 16.01.21 270 (З) н/о    3/0 средняя 
[Ac trans]
-19.5 -22.8 75 -20  1016.4  0.9  750  327           
18 16.01.21 260 (З) н/о    ясно 
-21.6 -24 81 -22  1017  0.5  750  330    -15.1  0.0     
21 16.01.21 тихо ()   н/о    ясно 
-22.7 -25.1 81 -23  1017.5  0.4  751  332           
00 17.01.21 270 (З) н/о    ясно 
-22.9 -25.1 82 -23  1017.1  -0.4  750  332           
03 17.01.21 тихо ()   н/о    ясно 
-22.6 -24.7 83 -23  1016.8  -0.3  750  331           
06 17.01.21 270 (З) 10 км    8/0 средняя 
[Ac trans]
-20.4 -22.7 82 -23  1016.5  -0.1  750  328  -30      равномерный
сухой снег
100% 
09 17.01.21 280 (З) 10 км  слаб. снег  10/0 средняя 
[As op]
-17 -19.5 81 -21  1016.6  0.3  750  324           
12 17.01.21 300 (СЗ) 10 км  в посл. час снег  10/0 средняя 
[As op]
-15.5 -18.8 76 -19  1016.2  -0.3  750  322      0.4     
15 17.01.21 330 (СЗ) н/о  в посл. час снег  6/0 средняя, верхняя 
[As trans|Ci fib]
-15.8 -18.8 78 -18  1017.2  0.9  751  323           
18 17.01.21 330 (СЗ) н/о  {снег}  ясно 
-17.7 -20.2 81 -20  1017.6  0.3  751  325    -15.3  0.6     
21 17.01.21 330 (СЗ) н/о    10/10 720 м 
[Sc]
-19.8 -22.2 81 -20  1018.7  752  328           
00 18.01.21 330 (СЗ) н/о    10/10 300 м 
[St]
-20.4 -22.7 82 -25  1018.8  752  329           
03 18.01.21 320 (СЗ) н/о  слаб. снег  10/10 330 м 
[Frnb|Ns]
-15.5 -17.9 82 -18  1018.5  752  323           
06 18.01.21 340 (С) 10 км  слаб. снег  10/10 300 м 
[Frnb|Ns]
-15.5 -17.9 82 -19  1019.3  0.8  752  323  -20.6    0.4     
09 18.01.21 340 (С) 10 км  {снег}  8/0 средняя, верхняя 
[Ac trans|Ci fib]
-14.9 -17.7 79 -19  1019.7  0.5  753  322           
12 18.01.21 340 (С) 10 км  {снег}  10/10 630 м 
[Sc]
-13.9 -17.1 77 -17  1019.6  -0.1  753  321           
15 18.01.21 340 (С) н/о  {ливн. осадки}  10/10 800 м 
[Sc]
-14.5 -17.5 78 -18  1020  0.4  753  322           
18 18.01.21 340 (С) н/о  {ливн. осадки}  10/10 600 м 
[Sc]
-15.1 -17.9 79 -19  1020.6  0.5  753  323    -13.7  0.0     
21 18.01.21 320 (СЗ) н/о    10/10 900 м 
[Sc]
-15.5 -18.3 79 -19  1020.5  -0.1  753  323           
00 19.01.21 320 (СЗ) н/о    10/10 800 м 
[Sc]
-16.4 -19 80 -19  1020.9  0.3  754  325           
03 19.01.21 320 (СЗ) н/о    3/0 верхняя 
[Ci fib]
-19.9 -22.2 82 -23  1020.8  -0.3  753  329           
06 19.01.21 320 (СЗ) 10 км    3/0 верхняя 
[Ci fib]
-20.8 -22.9 83 -24  1021.2  0.4  754  330  -21         
09 19.01.21 290 (З) 10 км    4/0 верхняя 
[Ci fib]
-17.4 -20.6 76 -20  1021.4  0.4  754  326           
Время (UTC), дата Ветер
(°,м/с) 
Видим.   Явления Облачность Т
(°С)
Тd
(°С)
f(%) Тe
(°С)
Pmin
(гПа)
dP
(гПа)
Po
(мм)
O2
(г/м3)
Тmin Tmax R s Состояние
почвы

Для получения пояснительной информации подведите курсор к названию столбца.

ПОГОДА в Чернигове - архив

Всё, что Вы хотите узнать о погоде в Чернигове - удобно и подробно!

Выберите нужную дату (начиная с 1 января 2019* года) и нажмите кнопку "Найти".
Будут отображены архивные сводки погоды по пункту Чернигов, начиная с указанной даты.


Отображать данные в формате CSV (для использования в таблицах Excel)


Внимание! Наш архив погоды предназначен исключительно для личного некоммерческого использования в познавательных целях. Если Вам необходимы официальные справки о состоянии погоды (для производственных, юридических, коммерческих и т.п. целей), обращайтесь в органы Росгидромета.

*Примечание: данная дата относится к архиву по метеостанциям СССР (Россия, СНГ, Балтия).
Архив по метеостанциям Зарубежной Европы и Азии (кроме Китая) хранится 10 дней, по другим регионам земного шара (Китай, Африка, Америка, Австралия, Океания) - 1 день.

Чернигов - район местоположения метеостанции


Название, широта, долгота, высота метеостанции:
Чернигов 51.5°ш. 31.2°д. 141 м над ур. моря [Украина]

Дополнительная информация

В oтличие oт бoльшинства пoгoдных сайтoв мы публикуем пoдрoбную метеoинфoрмацию в детальнoм прoфессиoнальнoм фoрмате.

Характеристики температуры и влажнoсти вoздуха измеряются на высoте 2 м в тени вдали oт зданий и деревьев.
Скoрoсть ветра измеряется на высoте 10 м (на урoвне рoста челoвека скoрoсть ветра ниже в 1.5-2 раза). Если метеoстанция нахoдится в гoрoде или в лесу, тo скoрoсть ветра занижена на 2-4 м/с пo сравнению с oткрытым местoм. Скoрoсть ветра над акватoриями крупных рек и oзёр, а также на вершинах хoлмoв на 2-5 м/с выше, чем в oбычных услoвиях.
Атмoсфернoе давление в разных тoчках местнoсти мoжет значительнo oтличаться oт давления на метеoстанции, в зависимoсти oт услoвий рельефа (при пoдъёме на 10 м давление пoнижается примернo на 1 мм рт.ст.).